Year,Month,Day,Hour,Minute,Value (Times are PST for temperature in C)
2015,07,05,00,00,22.40
2015,07,05,00,01,22.40
2015,07,05,00,02,22.40
2015,07,05,00,03,22.40
2015,07,05,00,04,22.40
2015,07,05,00,05,22.30
2015,07,05,00,06,22.30
2015,07,05,00,07,22.30
2015,07,05,00,08,22.30
2015,07,05,00,09,22.30
2015,07,05,00,10,22.30
2015,07,05,00,11,22.30
2015,07,05,00,12,22.30
2015,07,05,00,13,22.30
2015,07,05,00,14,22.30
2015,07,05,00,15,22.20
2015,07,05,00,16,22.20
2015,07,05,00,17,22.20
2015,07,05,00,18,22.20
2015,07,05,00,19,22.10
2015,07,05,00,20,22.10
2015,07,05,00,21,22.10
2015,07,05,00,24,21.90
2015,07,05,00,25,21.90
2015,07,05,00,26,21.90
2015,07,05,00,27,21.90
2015,07,05,00,28,21.80
2015,07,05,00,31,21.80
2015,07,05,00,32,21.70
2015,07,05,00,33,21.70
2015,07,05,00,34,21.70
2015,07,05,00,35,21.70
2015,07,05,00,36,21.70
2015,07,05,00,38,21.70
2015,07,05,00,39,21.70
2015,07,05,00,40,21.60
2015,07,05,00,41,21.70
2015,07,05,00,42,21.60
2015,07,05,00,43,21.60
2015,07,05,00,44,21.70
2015,07,05,00,45,21.70
2015,07,05,00,48,21.60
2015,07,05,00,49,21.60
2015,07,05,00,50,21.60
2015,07,05,00,51,21.60
2015,07,05,00,54,21.50
2015,07,05,00,55,21.40
2015,07,05,00,56,21.40
2015,07,05,00,58,21.40
2015,07,05,00,59,21.40
2015,07,05,01,00,21.40
2015,07,05,01,01,21.30
2015,07,05,01,02,21.40
2015,07,05,01,03,21.30
2015,07,05,01,04,21.30
2015,07,05,01,05,21.30
2015,07,05,01,06,21.30
2015,07,05,01,07,21.30
2015,07,05,01,08,21.30
2015,07,05,01,09,21.20
2015,07,05,01,12,21.20
2015,07,05,01,13,21.10
2015,07,05,01,14,21.10
2015,07,05,01,15,21.10
2015,07,05,01,16,21.00
2015,07,05,01,17,21.00
2015,07,05,01,19,20.90
2015,07,05,01,20,20.90
2015,07,05,01,21,20.80
2015,07,05,01,22,20.80
2015,07,05,01,23,20.80
2015,07,05,01,24,20.80
2015,07,05,01,27,20.70
2015,07,05,01,28,20.70
2015,07,05,01,29,20.70
2015,07,05,01,30,20.70
2015,07,05,01,31,20.70
2015,07,05,01,32,20.70
2015,07,05,01,33,20.70
2015,07,05,01,34,20.70
2015,07,05,01,35,20.70
2015,07,05,01,36,20.70
2015,07,05,01,37,20.70
2015,07,05,01,38,20.60
2015,07,05,01,40,20.60
2015,07,05,01,41,20.60
2015,07,05,01,42,20.60
2015,07,05,01,43,20.60
2015,07,05,01,44,20.60
2015,07,05,01,45,20.60
2015,07,05,01,47,20.60
2015,07,05,01,48,20.60
2015,07,05,01,49,20.50
2015,07,05,01,50,20.50
2015,07,05,01,51,20.50
2015,07,05,01,52,20.40
2015,07,05,01,53,20.40
2015,07,05,01,54,20.40
2015,07,05,01,55,20.40
2015,07,05,01,56,20.30
2015,07,05,01,59,20.30
2015,07,05,02,00,20.20
2015,07,05,02,01,20.20
2015,07,05,02,02,20.20
2015,07,05,02,04,20.20
2015,07,05,02,05,20.10
2015,07,05,02,06,20.10
2015,07,05,02,07,20.10
2015,07,05,02,08,20.10
2015,07,05,02,09,20.10
2015,07,05,02,10,20.10
2015,07,05,02,11,20.10
2015,07,05,02,12,20.10
2015,07,05,02,14,20.20
2015,07,05,02,15,20.10
2015,07,05,02,16,20.20
2015,07,05,02,18,20.20
2015,07,05,02,19,20.20
2015,07,05,02,20,20.20
2015,07,05,02,21,20.10
2015,07,05,02,22,20.10
2015,07,05,02,23,20.10
2015,07,05,02,24,20.10
2015,07,05,02,27,19.90
2015,07,05,02,29,19.80
2015,07,05,02,31,19.80
2015,07,05,02,32,19.80
2015,07,05,02,33,19.70
2015,07,05,02,34,19.70
2015,07,05,02,35,19.60
2015,07,05,02,36,19.60
2015,07,05,02,37,19.60
2015,07,05,02,38,19.50
2015,07,05,02,39,19.40
2015,07,05,02,40,19.40
2015,07,05,02,41,19.40
2015,07,05,02,42,19.40
2015,07,05,02,43,19.30
2015,07,05,02,44,19.30
2015,07,05,02,45,19.30
2015,07,05,02,46,19.30
2015,07,05,02,49,19.30
2015,07,05,02,50,19.30
2015,07,05,02,51,19.30
2015,07,05,02,52,19.30
2015,07,05,02,53,19.30
2015,07,05,02,54,19.30
2015,07,05,02,55,19.30
2015,07,05,02,57,19.30
2015,07,05,02,58,19.20
2015,07,05,02,59,19.20
2015,07,05,03,00,19.20
2015,07,05,03,01,19.20
2015,07,05,03,03,19.20
2015,07,05,03,04,19.20
2015,07,05,03,05,19.20
2015,07,05,03,06,19.20
2015,07,05,03,07,19.10
2015,07,05,03,08,19.10
2015,07,05,03,09,19.10
2015,07,05,03,11,19.00
2015,07,05,03,12,18.90
2015,07,05,03,14,18.90
2015,07,05,03,15,18.80
2015,07,05,03,16,18.80
2015,07,05,03,17,18.80
2015,07,05,03,18,18.80
2015,07,05,03,19,18.80
2015,07,05,03,20,18.80
2015,07,05,03,21,18.70
2015,07,05,03,22,18.70
2015,07,05,03,23,18.70
2015,07,05,03,24,18.70
2015,07,05,03,25,18.70
2015,07,05,03,26,18.70
2015,07,05,03,27,18.70
2015,07,05,03,28,18.70
2015,07,05,03,29,18.70
2015,07,05,03,31,18.70
2015,07,05,03,32,18.70
2015,07,05,03,33,18.70
2015,07,05,03,34,18.70
2015,07,05,03,35,18.60
2015,07,05,03,36,18.60
2015,07,05,03,37,18.60
2015,07,05,03,38,18.60
2015,07,05,03,39,18.60
2015,07,05,03,40,18.60
2015,07,05,03,41,18.70
2015,07,05,03,42,18.70
2015,07,05,03,43,18.70
2015,07,05,03,44,18.70
2015,07,05,03,45,18.70
2015,07,05,03,46,18.60
2015,07,05,03,47,18.60
2015,07,05,03,48,18.60
2015,07,05,03,49,18.60
2015,07,05,03,50,18.60
2015,07,05,03,51,18.60
2015,07,05,03,52,18.50
2015,07,05,03,53,18.50
2015,07,05,03,54,18.50
2015,07,05,03,55,18.40
2015,07,05,03,56,18.40
2015,07,05,03,59,18.30
2015,07,05,04,00,18.30
2015,07,05,04,01,18.30
2015,07,05,04,02,18.30
2015,07,05,04,03,18.30
2015,07,05,04,05,18.30
2015,07,05,04,06,18.30
2015,07,05,04,07,18.30
2015,07,05,04,08,18.30
2015,07,05,04,09,18.30
2015,07,05,04,10,18.30
2015,07,05,04,11,18.20
2015,07,05,04,12,18.20
2015,07,05,04,13,18.20
2015,07,05,04,14,18.20
2015,07,05,04,15,18.20
2015,07,05,04,18,18.20
2015,07,05,04,19,18.10
2015,07,05,04,20,18.10
2015,07,05,04,21,18.10
2015,07,05,04,22,18.10
2015,07,05,04,23,18.10
2015,07,05,04,24,18.10
2015,07,05,04,25,18.10
2015,07,05,04,26,18.10
2015,07,05,04,27,18.10
2015,07,05,04,28,18.10
2015,07,05,04,29,18.00
2015,07,05,04,30,18.00
2015,07,05,04,31,18.00
2015,07,05,04,32,17.90
2015,07,05,04,33,17.90
2015,07,05,04,34,17.90
2015,07,05,04,35,17.90
2015,07,05,04,36,17.90
2015,07,05,04,37,17.90
2015,07,05,04,38,17.90
2015,07,05,04,39,17.90
2015,07,05,04,40,17.90
2015,07,05,04,41,17.90
2015,07,05,04,42,17.90
2015,07,05,04,43,17.90
2015,07,05,04,44,17.80
2015,07,05,04,45,17.80
2015,07,05,04,46,17.80
2015,07,05,04,47,17.80
2015,07,05,04,49,17.80
2015,07,05,04,50,17.80
2015,07,05,04,51,17.80
2015,07,05,04,52,17.80
2015,07,05,04,53,17.70
2015,07,05,04,54,17.70
2015,07,05,04,56,17.70
2015,07,05,04,57,17.70
2015,07,05,04,58,17.60
2015,07,05,04,59,17.60
2015,07,05,05,00,17.60
2015,07,05,05,01,17.60
2015,07,05,05,02,17.60
2015,07,05,05,03,17.60
2015,07,05,05,04,17.60
2015,07,05,05,05,17.60
2015,07,05,05,06,17.60
2015,07,05,05,07,17.60
2015,07,05,05,08,17.60
2015,07,05,05,09,17.60
2015,07,05,05,10,17.60
2015,07,05,05,11,17.70
2015,07,05,05,12,17.70
2015,07,05,05,14,17.70
2015,07,05,05,15,17.70
2015,07,05,05,16,17.70
2015,07,05,05,17,17.70
2015,07,05,05,18,17.70
2015,07,05,05,19,17.70
2015,07,05,05,20,17.70
2015,07,05,05,21,17.70
2015,07,05,05,22,17.70
2015,07,05,05,23,17.60
2015,07,05,05,24,17.60
2015,07,05,05,25,17.60
2015,07,05,05,26,17.60
2015,07,05,05,27,17.60
2015,07,05,05,28,17.60
2015,07,05,05,29,17.50
2015,07,05,05,30,17.50
2015,07,05,05,31,17.50
2015,07,05,05,32,17.40
2015,07,05,05,33,17.40
2015,07,05,05,34,17.40
2015,07,05,05,35,17.40
2015,07,05,05,36,17.40
2015,07,05,05,37,17.40
2015,07,05,05,38,17.30
2015,07,05,05,39,17.30
2015,07,05,05,41,17.30
2015,07,05,05,42,17.30
2015,07,05,05,43,17.20
2015,07,05,05,44,17.20
2015,07,05,05,45,17.20
2015,07,05,05,46,17.20
2015,07,05,05,47,17.20
2015,07,05,05,48,17.20
2015,07,05,05,49,17.20
2015,07,05,05,51,17.20
2015,07,05,05,52,17.20
2015,07,05,05,53,17.10
2015,07,05,05,54,17.10
2015,07,05,05,55,17.10
2015,07,05,05,56,17.10
2015,07,05,05,57,17.10
2015,07,05,05,58,17.10
2015,07,05,06,00,17.00
2015,07,05,06,01,17.00
2015,07,05,06,02,17.00
2015,07,05,06,03,17.00
2015,07,05,06,04,17.00
2015,07,05,06,05,17.00
2015,07,05,06,06,16.90
2015,07,05,06,07,16.90
2015,07,05,06,08,16.90
2015,07,05,06,10,16.90
2015,07,05,06,11,16.90
2015,07,05,06,14,16.90
2015,07,05,06,15,16.80
2015,07,05,06,16,16.80
2015,07,05,06,17,16.80
2015,07,05,06,18,16.80
2015,07,05,06,19,16.80
2015,07,05,06,20,16.80
2015,07,05,06,21,16.70
2015,07,05,06,22,16.70
2015,07,05,06,23,16.70
2015,07,05,06,24,16.70
2015,07,05,06,27,16.70
2015,07,05,06,28,16.70
2015,07,05,06,29,16.70
2015,07,05,06,30,16.70
2015,07,05,06,31,16.70
2015,07,05,06,32,16.60
2015,07,05,06,33,16.60
2015,07,05,06,34,16.60
2015,07,05,06,36,16.60
2015,07,05,06,37,16.60
2015,07,05,06,38,16.60
2015,07,05,06,39,16.60
2015,07,05,06,40,16.60
2015,07,05,06,41,16.60
2015,07,05,06,42,16.50
2015,07,05,06,44,16.50
2015,07,05,06,45,16.60
2015,07,05,06,46,16.60
2015,07,05,06,47,16.60
2015,07,05,06,48,16.60
2015,07,05,06,49,16.60
2015,07,05,06,50,16.60
2015,07,05,06,51,16.60
2015,07,05,06,52,16.60
2015,07,05,06,53,16.60
2015,07,05,06,54,16.60
2015,07,05,06,55,16.60
2015,07,05,06,56,16.60
2015,07,05,06,57,16.60
2015,07,05,06,59,16.50
2015,07,05,07,00,16.50
2015,07,05,07,01,16.50
2015,07,05,07,03,16.50
2015,07,05,07,04,16.40
2015,07,05,07,05,16.40
2015,07,05,07,06,16.40
2015,07,05,07,07,16.40
2015,07,05,07,08,16.40
2015,07,05,07,09,16.40
2015,07,05,07,10,16.40
2015,07,05,07,11,16.30
2015,07,05,07,12,16.30
2015,07,05,07,13,16.30
2015,07,05,07,14,16.30
2015,07,05,07,15,16.30
2015,07,05,07,16,16.30
2015,07,05,07,17,16.30
2015,07,05,07,18,16.30
2015,07,05,07,19,16.30
2015,07,05,07,20,16.30
2015,07,05,07,21,16.30
2015,07,05,07,22,16.30
2015,07,05,07,23,16.30
2015,07,05,07,24,16.30
2015,07,05,07,25,16.30
2015,07,05,07,26,16.30
2015,07,05,07,27,16.30
2015,07,05,07,28,16.30
2015,07,05,07,29,16.30
2015,07,05,07,30,16.20
2015,07,05,07,31,16.30
2015,07,05,07,32,16.20
2015,07,05,07,33,16.20
2015,07,05,07,34,16.20
2015,07,05,07,35,16.30
2015,07,05,07,36,16.30
2015,07,05,07,37,16.30
2015,07,05,07,38,16.30
2015,07,05,07,39,16.30
2015,07,05,07,40,16.30
2015,07,05,07,41,16.30
2015,07,05,07,42,16.30
2015,07,05,07,43,16.30
2015,07,05,07,44,16.30
2015,07,05,07,45,16.30
2015,07,05,07,46,16.30
2015,07,05,07,47,16.30
2015,07,05,07,48,16.30
2015,07,05,07,49,16.30
2015,07,05,07,50,16.40
2015,07,05,07,51,16.30
2015,07,05,07,52,16.30
2015,07,05,07,53,16.30
2015,07,05,07,54,16.30
2015,07,05,07,55,16.30
2015,07,05,07,56,16.30
2015,07,05,07,57,16.40
2015,07,05,07,58,16.40
2015,07,05,07,59,16.40
2015,07,05,08,00,16.40
2015,07,05,08,01,16.40
2015,07,05,08,02,16.40
2015,07,05,08,03,16.40
2015,07,05,08,04,16.40
2015,07,05,08,05,16.50
2015,07,05,08,06,16.50
2015,07,05,08,07,16.50
2015,07,05,08,08,16.50
2015,07,05,08,09,16.50
2015,07,05,08,10,16.50
2015,07,05,08,11,16.50
2015,07,05,08,12,16.50
2015,07,05,08,13,16.50
2015,07,05,08,14,16.60
2015,07,05,08,15,16.60
2015,07,05,08,16,16.60
2015,07,05,08,17,16.60
2015,07,05,08,18,16.60
2015,07,05,08,19,16.60
2015,07,05,08,20,16.60
2015,07,05,08,21,16.60
2015,07,05,08,22,16.60
2015,07,05,08,23,16.60
2015,07,05,08,24,16.60
2015,07,05,08,25,16.70
2015,07,05,08,26,16.70
2015,07,05,08,27,16.70
2015,07,05,08,29,16.70
2015,07,05,08,30,16.70
2015,07,05,08,31,16.80
2015,07,05,08,32,16.80
2015,07,05,08,33,16.80
2015,07,05,08,34,16.80
2015,07,05,08,35,16.80
2015,07,05,08,36,16.90
2015,07,05,08,37,16.90
2015,07,05,08,38,16.90
2015,07,05,08,39,16.90
2015,07,05,08,40,16.90
2015,07,05,08,41,17.00
2015,07,05,08,42,17.00
2015,07,05,08,43,17.10
2015,07,05,08,44,17.10
2015,07,05,08,45,17.10
2015,07,05,08,46,17.10
2015,07,05,08,47,17.10
2015,07,05,08,48,17.20
2015,07,05,08,49,17.20
2015,07,05,08,50,17.20
2015,07,05,08,51,17.20
2015,07,05,08,52,17.20
2015,07,05,08,53,17.20
2015,07,05,08,54,17.30
2015,07,05,08,55,17.30
2015,07,05,08,56,17.30
2015,07,05,08,57,17.30
2015,07,05,08,58,17.30
2015,07,05,08,59,17.30
2015,07,05,09,00,17.30
2015,07,05,09,01,17.30
2015,07,05,09,02,17.40
2015,07,05,09,04,17.40
2015,07,05,09,05,17.40
2015,07,05,09,06,17.40
2015,07,05,09,07,17.40
2015,07,05,09,08,17.40
2015,07,05,09,09,17.40
2015,07,05,09,10,17.40
2015,07,05,09,11,17.40
2015,07,05,09,12,17.50
2015,07,05,09,13,17.50
2015,07,05,09,15,17.60
2015,07,05,09,16,17.60
2015,07,05,09,17,17.60
2015,07,05,09,18,17.60
2015,07,05,09,19,17.70
2015,07,05,09,20,17.70
2015,07,05,09,21,17.70
2015,07,05,09,22,17.70
2015,07,05,09,23,17.80
2015,07,05,09,24,17.80
2015,07,05,09,26,17.80
2015,07,05,09,27,17.90
2015,07,05,09,28,17.90
2015,07,05,09,29,17.90
2015,07,05,09,30,18.00
2015,07,05,09,31,18.10
2015,07,05,09,32,18.10
2015,07,05,09,33,18.10
2015,07,05,09,34,18.10
2015,07,05,09,36,18.20
2015,07,05,09,37,18.20
2015,07,05,09,38,18.20
2015,07,05,09,39,18.20
2015,07,05,09,40,18.30
2015,07,05,09,41,18.30
2015,07,05,09,42,18.30
2015,07,05,09,43,18.30
2015,07,05,09,44,18.40
2015,07,05,09,46,18.40
2015,07,05,09,47,18.50
2015,07,05,09,48,18.60
2015,07,05,09,49,18.60
2015,07,05,09,50,18.60
2015,07,05,09,51,18.60
2015,07,05,09,52,18.70
2015,07,05,09,53,18.70
2015,07,05,09,54,18.70
2015,07,05,09,55,18.80
2015,07,05,09,57,18.80
2015,07,05,09,58,18.80
2015,07,05,10,00,18.90
2015,07,05,10,01,18.90
2015,07,05,10,02,18.90
2015,07,05,10,03,18.90
2015,07,05,10,04,18.90
2015,07,05,10,05,18.90
2015,07,05,10,06,18.90
2015,07,05,10,07,18.90
2015,07,05,10,08,19.00
2015,07,05,10,09,19.00
2015,07,05,10,10,19.00
2015,07,05,10,12,19.00
2015,07,05,10,13,19.00
2015,07,05,10,14,19.00
2015,07,05,10,15,19.00
2015,07,05,10,16,19.10
2015,07,05,10,17,19.10
2015,07,05,10,18,19.10
2015,07,05,10,19,19.10
2015,07,05,10,21,19.20
2015,07,05,10,22,19.20
2015,07,05,10,23,19.20
2015,07,05,10,24,19.20
2015,07,05,10,25,19.30
2015,07,05,10,26,19.30
2015,07,05,10,27,19.30
2015,07,05,10,28,19.30
2015,07,05,10,29,19.40
2015,07,05,10,30,19.40
2015,07,05,10,31,19.40
2015,07,05,10,32,19.40
2015,07,05,10,35,19.50
2015,07,05,10,36,19.50
2015,07,05,10,37,19.60
2015,07,05,10,38,19.60
2015,07,05,10,39,19.60
2015,07,05,10,40,19.70
2015,07,05,10,41,19.70
2015,07,05,10,42,19.70
2015,07,05,10,43,19.70
2015,07,05,10,44,19.80
2015,07,05,10,45,19.80
2015,07,05,10,46,19.80
2015,07,05,10,48,19.90
2015,07,05,10,49,19.90
2015,07,05,10,50,19.90
2015,07,05,10,51,20.00
2015,07,05,10,52,20.10
2015,07,05,10,53,20.10
2015,07,05,10,54,20.10
2015,07,05,10,55,20.20
2015,07,05,10,56,20.20
2015,07,05,10,57,20.20
2015,07,05,10,58,20.30
2015,07,05,10,59,20.30
2015,07,05,11,00,20.30
2015,07,05,11,01,20.30
2015,07,05,11,02,20.40
2015,07,05,11,03,20.40
2015,07,05,11,04,20.50
2015,07,05,11,05,20.60
2015,07,05,11,06,20.60
2015,07,05,11,07,20.60
2015,07,05,11,08,20.60
2015,07,05,11,09,20.60
2015,07,05,11,10,20.70
2015,07,05,11,11,20.70
2015,07,05,11,12,20.70
2015,07,05,11,13,20.70
2015,07,05,11,15,20.70
2015,07,05,11,16,20.70
2015,07,05,11,17,20.80
2015,07,05,11,18,20.80
2015,07,05,11,19,20.80
2015,07,05,11,20,20.80
2015,07,05,11,21,20.80
2015,07,05,11,22,20.80
2015,07,05,11,23,20.80
2015,07,05,11,24,20.90
2015,07,05,11,25,20.90
2015,07,05,11,26,20.90
2015,07,05,11,27,20.90
2015,07,05,11,28,20.90
2015,07,05,11,29,20.90
2015,07,05,11,30,21.00
2015,07,05,11,31,21.00
2015,07,05,11,32,21.00
2015,07,05,11,33,21.10
2015,07,05,11,34,21.10
2015,07,05,11,35,21.10
2015,07,05,11,36,21.10
2015,07,05,11,37,21.20
2015,07,05,11,38,21.20
2015,07,05,11,39,21.20
2015,07,05,11,40,21.30
2015,07,05,11,41,21.30
2015,07,05,11,42,21.30
2015,07,05,11,44,21.30
2015,07,05,11,45,21.40
2015,07,05,11,46,21.40
2015,07,05,11,47,21.40
2015,07,05,11,48,21.40
2015,07,05,11,49,21.40
2015,07,05,11,50,21.40
2015,07,05,11,51,21.40
2015,07,05,11,52,21.40
2015,07,05,11,53,21.50
2015,07,05,11,54,21.50
2015,07,05,11,55,21.50
2015,07,05,11,56,21.50
2015,07,05,11,57,21.50
2015,07,05,11,58,21.50
2015,07,05,11,59,21.50
2015,07,05,12,00,21.50
2015,07,05,12,01,21.50
2015,07,05,12,02,21.60
2015,07,05,12,03,21.60
2015,07,05,12,04,21.60
2015,07,05,12,05,21.60
2015,07,05,12,06,21.60
2015,07,05,12,07,21.70
2015,07,05,12,08,21.70
2015,07,05,12,09,21.70
2015,07,05,12,11,21.80
2015,07,05,12,12,21.80
2015,07,05,12,13,21.80
2015,07,05,12,14,21.80
2015,07,05,12,15,21.90
2015,07,05,12,16,21.90
2015,07,05,12,17,21.90
2015,07,05,12,18,22.00
2015,07,05,12,19,22.00
2015,07,05,12,20,22.00
2015,07,05,12,21,22.10
2015,07,05,12,22,22.10
2015,07,05,12,23,22.10
2015,07,05,12,24,22.20
2015,07,05,12,25,22.20
2015,07,05,12,26,22.20
2015,07,05,12,27,22.20
2015,07,05,12,28,22.30
2015,07,05,12,29,22.30
2015,07,05,12,30,22.30
2015,07,05,12,31,22.40
2015,07,05,12,32,22.40
2015,07,05,12,33,22.40
2015,07,05,12,34,22.50
2015,07,05,12,35,22.50
2015,07,05,12,36,22.60
2015,07,05,12,38,22.60
2015,07,05,12,39,22.60
2015,07,05,12,40,22.70
2015,07,05,12,41,22.70
2015,07,05,12,42,22.80
2015,07,05,12,43,22.80
2015,07,05,12,44,22.80
2015,07,05,12,45,22.80
2015,07,05,12,46,22.90
2015,07,05,12,47,22.90
2015,07,05,12,48,22.90
2015,07,05,12,49,22.90
2015,07,05,12,50,23.00
2015,07,05,12,51,23.00
2015,07,05,12,52,23.10
2015,07,05,12,53,23.10
2015,07,05,12,54,23.10
2015,07,05,12,55,23.10
2015,07,05,12,56,23.10
2015,07,05,12,57,23.10
2015,07,05,12,58,23.20
2015,07,05,12,59,23.20
2015,07,05,13,00,23.20
2015,07,05,13,01,23.20
2015,07,05,13,02,23.20
2015,07,05,13,03,23.20
2015,07,05,13,04,23.20
2015,07,05,13,05,23.20
2015,07,05,13,06,23.20
2015,07,05,13,07,23.20
2015,07,05,13,08,23.30
2015,07,05,13,10,23.30
2015,07,05,13,12,23.30
2015,07,05,13,13,23.30
2015,07,05,13,14,23.30
2015,07,05,13,15,23.30
2015,07,05,13,16,23.40
2015,07,05,13,17,23.40
2015,07,05,13,18,23.40
2015,07,05,13,19,23.40
2015,07,05,13,20,23.50
2015,07,05,13,21,23.60
2015,07,05,13,22,23.60
2015,07,05,13,23,23.60
2015,07,05,13,24,23.60
2015,07,05,13,25,23.70
2015,07,05,13,26,23.70
2015,07,05,13,27,23.70
2015,07,05,13,28,23.80
2015,07,05,13,29,23.80
2015,07,05,13,30,23.80
2015,07,05,13,31,23.80
2015,07,05,13,32,23.80
2015,07,05,13,33,23.80
2015,07,05,13,34,23.80
2015,07,05,13,35,23.90
2015,07,05,13,36,23.90
2015,07,05,13,37,23.90
2015,07,05,13,38,23.90
2015,07,05,13,39,24.00
2015,07,05,13,40,24.00
2015,07,05,13,41,24.10
2015,07,05,13,42,24.10
2015,07,05,13,43,24.10
2015,07,05,13,44,24.20
2015,07,05,13,45,24.20
2015,07,05,13,46,24.20
2015,07,05,13,47,24.20
2015,07,05,13,48,24.30
2015,07,05,13,49,24.30
2015,07,05,13,50,24.30
2015,07,05,13,51,24.30
2015,07,05,13,52,24.30
2015,07,05,13,53,24.30
2015,07,05,13,54,24.40
2015,07,05,13,55,24.40
2015,07,05,13,56,24.40
2015,07,05,13,58,24.40
2015,07,05,13,59,24.40
2015,07,05,14,00,24.40
2015,07,05,14,01,24.50
2015,07,05,14,02,24.50
2015,07,05,14,03,24.60
2015,07,05,14,04,24.60
2015,07,05,14,05,24.60
2015,07,05,14,06,24.60
2015,07,05,14,07,24.60
2015,07,05,14,08,24.60
2015,07,05,14,09,24.60
2015,07,05,14,10,24.60
2015,07,05,14,11,24.50
2015,07,05,14,12,24.40
2015,07,05,14,13,24.40
2015,07,05,14,14,24.40
2015,07,05,14,15,24.40
2015,07,05,14,16,24.30
2015,07,05,14,17,24.30
2015,07,05,14,18,24.30
2015,07,05,14,19,24.30
2015,07,05,14,20,24.30
2015,07,05,14,21,24.30
2015,07,05,14,22,24.30
2015,07,05,14,23,24.30
2015,07,05,14,24,24.30
2015,07,05,14,25,24.30
2015,07,05,14,26,24.30
2015,07,05,14,27,24.30
2015,07,05,14,28,24.30
2015,07,05,14,29,24.30
2015,07,05,14,30,24.30
2015,07,05,14,31,24.30
2015,07,05,14,32,24.30
2015,07,05,14,33,24.30
2015,07,05,14,34,24.30
2015,07,05,14,35,24.30
2015,07,05,14,36,24.40
2015,07,05,14,37,24.40
2015,07,05,14,38,24.40
2015,07,05,14,39,24.40
2015,07,05,14,40,24.50
2015,07,05,14,41,24.60
2015,07,05,14,42,24.60
2015,07,05,14,43,24.60
2015,07,05,14,44,24.70
2015,07,05,14,45,24.70
2015,07,05,14,46,24.70
2015,07,05,14,47,24.70
2015,07,05,14,48,24.80
2015,07,05,14,49,24.80
2015,07,05,14,50,24.80
2015,07,05,14,51,24.90
2015,07,05,14,52,24.90
2015,07,05,14,53,24.90
2015,07,05,14,54,24.90
2015,07,05,14,55,25.00
2015,07,05,14,56,25.00
2015,07,05,14,57,25.10
2015,07,05,14,58,25.10
2015,07,05,14,59,25.10
2015,07,05,15,00,25.10
2015,07,05,15,01,25.20
2015,07,05,15,02,25.20
2015,07,05,15,03,25.20
2015,07,05,15,04,25.20
2015,07,05,15,05,25.20
2015,07,05,15,06,25.20
2015,07,05,15,07,25.20
2015,07,05,15,08,25.30
2015,07,05,15,09,25.30
2015,07,05,15,10,25.30
2015,07,05,15,11,25.40
2015,07,05,15,12,25.40
2015,07,05,15,13,25.50
2015,07,05,15,14,25.60
2015,07,05,15,15,25.60
2015,07,05,15,16,25.70
2015,07,05,15,17,25.70
2015,07,05,15,18,25.80
2015,07,05,15,19,25.80
2015,07,05,15,20,25.80
2015,07,05,15,21,25.80
2015,07,05,15,22,25.90
2015,07,05,15,23,25.90
2015,07,05,15,24,26.00
2015,07,05,15,25,26.10
2015,07,05,15,26,26.10
2015,07,05,15,27,26.10
2015,07,05,15,28,26.10
2015,07,05,15,29,26.20
2015,07,05,15,30,26.20
2015,07,05,15,31,26.20
2015,07,05,15,32,26.20
2015,07,05,15,33,26.30
2015,07,05,15,34,26.30
2015,07,05,15,35,26.30
2015,07,05,15,36,26.30
2015,07,05,15,37,26.40
2015,07,05,15,38,26.40
2015,07,05,15,39,26.40
2015,07,05,15,40,26.50
2015,07,05,15,41,26.60
2015,07,05,15,42,26.60
2015,07,05,15,43,26.60
2015,07,05,15,44,26.70
2015,07,05,15,45,26.70
2015,07,05,15,46,26.70
2015,07,05,15,47,26.80
2015,07,05,15,48,26.80
2015,07,05,15,49,26.80
2015,07,05,15,50,26.80
2015,07,05,15,51,26.80
2015,07,05,15,52,26.80
2015,07,05,15,53,26.80
2015,07,05,15,54,26.80
2015,07,05,15,55,26.80
2015,07,05,15,56,26.80
2015,07,05,15,57,26.80
2015,07,05,15,58,26.80
2015,07,05,15,59,26.90
2015,07,05,16,00,26.90
2015,07,05,16,01,26.90
2015,07,05,16,02,26.90
2015,07,05,16,03,26.90
2015,07,05,16,04,26.90
2015,07,05,16,05,26.90
2015,07,05,16,06,26.80
2015,07,05,16,07,26.80
2015,07,05,16,08,26.80
2015,07,05,16,09,26.70
2015,07,05,16,10,26.70
2015,07,05,16,11,26.70
2015,07,05,16,12,26.70
2015,07,05,16,13,26.60
2015,07,05,16,14,26.70
2015,07,05,16,15,26.70
2015,07,05,16,16,26.70
2015,07,05,16,17,26.70
2015,07,05,16,18,26.70
2015,07,05,16,20,26.80
2015,07,05,16,21,26.80
2015,07,05,16,22,26.80
2015,07,05,16,23,26.80
2015,07,05,16,24,26.80
2015,07,05,16,25,26.80
2015,07,05,16,26,26.80
2015,07,05,16,27,26.80
2015,07,05,16,28,26.80
2015,07,05,16,29,26.80
2015,07,05,16,30,26.80
2015,07,05,16,31,26.80
2015,07,05,16,32,26.80
2015,07,05,16,33,26.80
2015,07,05,16,34,26.80
2015,07,05,16,35,26.90
2015,07,05,16,36,26.90
2015,07,05,16,37,26.90
2015,07,05,16,38,26.90
2015,07,05,16,39,26.90
2015,07,05,16,40,26.90
2015,07,05,16,41,26.90
2015,07,05,16,42,27.00
2015,07,05,16,43,27.00
2015,07,05,16,44,27.00
2015,07,05,16,45,27.00
2015,07,05,16,46,27.10
2015,07,05,16,47,27.10
2015,07,05,16,48,27.10
2015,07,05,16,49,27.10
2015,07,05,16,50,27.10
2015,07,05,16,51,27.10
2015,07,05,16,52,27.10
2015,07,05,16,53,27.00
2015,07,05,16,54,27.00
2015,07,05,16,55,27.00
2015,07,05,16,56,26.90
2015,07,05,16,57,26.90
2015,07,05,16,58,26.90
2015,07,05,16,59,26.90
2015,07,05,17,00,26.80
2015,07,05,17,01,26.80
2015,07,05,17,02,26.80
2015,07,05,17,03,26.70
2015,07,05,17,04,26.70
2015,07,05,17,05,26.70
2015,07,05,17,06,26.70
2015,07,05,17,07,26.70
2015,07,05,17,08,26.70
2015,07,05,17,09,26.70
2015,07,05,17,10,26.70
2015,07,05,17,11,26.60
2015,07,05,17,12,26.60
2015,07,05,17,13,26.60
2015,07,05,17,14,26.60
2015,07,05,17,15,26.50
2015,07,05,17,16,26.50
2015,07,05,17,17,26.50
2015,07,05,17,18,26.50
2015,07,05,17,19,26.40
2015,07,05,17,20,26.40
2015,07,05,17,21,26.40
2015,07,05,17,22,26.40
2015,07,05,17,23,26.40
2015,07,05,17,24,26.40
2015,07,05,17,25,26.30
2015,07,05,17,26,26.30
2015,07,05,17,27,26.30
2015,07,05,17,28,26.30
2015,07,05,17,29,26.20
2015,07,05,17,30,26.20
2015,07,05,17,31,26.20
2015,07,05,17,32,26.20
2015,07,05,17,33,26.20
2015,07,05,17,34,26.20
2015,07,05,17,35,26.20
2015,07,05,17,36,26.20
2015,07,05,17,37,26.20
2015,07,05,17,38,26.20
2015,07,05,17,39,26.20
2015,07,05,17,40,26.10
2015,07,05,17,41,26.20
2015,07,05,17,42,26.20
2015,07,05,17,43,26.10
2015,07,05,17,44,26.10
2015,07,05,17,45,26.10
2015,07,05,17,46,26.10
2015,07,05,17,47,26.00
2015,07,05,17,48,25.90
2015,07,05,17,49,25.90
2015,07,05,17,50,25.90
2015,07,05,17,51,25.80
2015,07,05,17,52,25.80
2015,07,05,17,53,25.70
2015,07,05,17,54,25.70
2015,07,05,17,55,25.60
2015,07,05,17,56,25.60
2015,07,05,17,57,25.60
2015,07,05,17,58,25.50
2015,07,05,17,59,25.40
2015,07,05,18,00,25.40
2015,07,05,18,01,25.40
2015,07,05,18,02,25.40
2015,07,05,18,03,25.30
2015,07,05,18,04,25.30
2015,07,05,18,05,25.30
2015,07,05,18,06,25.20
2015,07,05,18,08,25.20
2015,07,05,18,09,25.20
2015,07,05,18,10,25.20
2015,07,05,18,11,25.10
2015,07,05,18,12,25.10
2015,07,05,18,13,25.10
2015,07,05,18,14,25.10
2015,07,05,18,15,25.10
2015,07,05,18,16,25.10
2015,07,05,18,17,25.10
2015,07,05,18,18,25.10
2015,07,05,18,19,25.10
2015,07,05,18,20,25.10
2015,07,05,18,21,25.10
2015,07,05,18,22,25.10
2015,07,05,18,23,25.10
2015,07,05,18,24,25.10
2015,07,05,18,25,25.10
2015,07,05,18,26,25.10
2015,07,05,18,27,25.10
2015,07,05,18,28,25.10
2015,07,05,18,29,25.10
2015,07,05,18,30,25.10
2015,07,05,18,31,25.20
2015,07,05,18,32,25.20
2015,07,05,18,33,25.20
2015,07,05,18,34,25.20